This demonstration page uses our WeatherBlox Daily Observations layout. Learn more.

Left ArrowRight Arrow

Hourly Observations for March 2, 2020

Temp ( °F °C ) Dew Point ( °F °C ) Humidity (%) Winds ( mph kmh ) Pressure ( in mb ) Visibility ( mi km ) Precip ( " mm )
12:56 am 00:56 Mostly Clear 33 0.6 26 -3.3 75 75 N 12 19 30.02 1017 10 16 0.00 0.00
1:56 am 01:56 Cloudy 33 0.6 26 -3.3 75 75 N 10 17 30.02 1017 10 16 0.00 0.00
2:26 am 02:26 Cloudy with Light Snow 32 0 28 -2 87 87 NNW 18 30 30.09 1019 3 4 0.00 0.00
2:31 am 02:31 Cloudy with Light Snow 32 0 28 -2 87 87 NNW 17 28 30.09 1019 1 2 0.00 0.00
2:40 am 02:40 Cloudy with Light Snow 30 -1 28 -2 93 93 N 14 22 30.10 1019 2 2 0.00 0.00
2:44 am 02:44 Cloudy with Light Snow 30 -1 28 -2 93 93 N 14 22 30.09 1019 2 3 0.00 0.00
2:56 am 02:56 Cloudy with Light Snow 31 -0.6 29 -1.7 92 92 N 13 20 30.00 1016 4 6 0.00 0.00
3:04 am 03:04 Cloudy with Light Snow 30 -1 28 -2 93 93 N 14 22 30.08 1019 6 10 0.00 0.00
3:29 am 03:29 Cloudy with Light Snow 30 -1 28 -2 93 93 N 12 19 30.07 1018 9 14 0.01 0.25
3:56 am 03:56 Cloudy 31 -0.6 29 -1.7 92 92 NNW 7 11 29.99 1016 10 16 0.01 0.25
4:16 am 04:16 Cloudy 30 -1 28 -2 93 93 NW 7 11 30.07 1018 9 14 0.00 0.00
4:23 am 04:23 Cloudy with Light Snow 30 -1 28 -2 93 93 NW 5 7 30.07 1018 2 3 0.00 0.00
4:29 am 04:29 Cloudy with Light Snow 30 -1 28 -2 93 93 NNW 7 11 30.07 1018 1 2 0.00 0.00
4:35 am 04:35 Cloudy with Light Snow 30 -1 28 -2 93 93 N 7 11 30.06 1018 2 3 0.00 0.00
4:43 am 04:43 Cloudy with Light Snow 30 -1 28 -2 93 93 N 6 9 30.06 1018 4 6 0.00 0.00
4:56 am 04:56 Cloudy with Light Snow 30 -1.1 28 -2.2 92 92 NW 5 7 29.98 1015 9 14 0.00 0.00
5:56 am 05:56 Clear 28 -2.2 26 -3.3 92 92 NW 3 6 29.96 1015 10 16 0.01 0.25
6:56 am 06:56 Cloudy 28 -2.2 26 -3.3 92 92 NW 5 7 29.96 1015 10 16 0.00 0.00
7:56 am 07:56 Sunny 27 -2.8 25 -3.9 92 92 NW 5 7 29.95 1014 10 16 0.00 0.00
8:56 am 08:56 Sunny 33 0.6 29 -1.7 85 85 WNW 3 6 29.92 1013 10 16 0.00 0.00
9:56 am 09:56 Sunny 34 1.1 28 -2.2 79 79 SW 9 15 29.93 1014 10 16 0.00 0.00
10:56 am 10:56 Cloudy 35 1.7 29 -1.7 78 78 SW 13 20 29.94 1014 10 16 0.00 0.00
11:56 am 11:56 Cloudy 36 2.2 29 -1.7 76 76 SSW 16 26 29.91 1013 10 16 0.00 0.00
12:56 pm 12:56 Cloudy 38 3.3 29 -1.7 70 70 SW 16 26 29.84 1010 10 16 0.00 0.00
1:56 pm 13:56 Mostly Sunny 42 5.6 32 0 68 68 SW 16 26 29.77 1008 10 16 0.00 0.00
2:56 pm 14:56 Sunny 45 7.2 33 0.6 63 63 SW 17 28 29.72 1007 10 16 0.00 0.00
3:25 pm 15:25 Mostly Cloudy 45 7 32 0 61 61 WSW 16 26 29.72 1006 10 16 0.00 0.00
3:56 pm 15:56 Partly Cloudy 47 8.3 32 0 56 56 WSW 20 31 29.71 1006 10 16 0.00 0.00
4:56 pm 16:56 Sunny 47 8.3 32 0 56 56 SW 17 28 29.70 1006 10 16 0.00 0.00
5:56 pm 17:56 Sunny 47 8.3 32 0 56 56 SW 10 17 29.67 1005 10 16 0.00 0.00
6:56 pm 18:56 Clear 42 5.6 32 0 68 68 SSW 9 15 29.68 1005 10 16 0.00 0.00
7:56 pm 19:56 Clear 43 6.1 30 -1.1 60 60 WSW 12 19 29.70 1006 10 16 0.00 0.00
8:56 pm 20:56 Clear 42 5.6 26 -3.3 53 53 WNW 9 15 29.71 1006 10 16 0.00 0.00
9:56 pm 21:56 Mostly Cloudy 40 4.4 25 -3.9 55 55 W 7 11 29.74 1007 10 16 0.00 0.00
10:56 pm 22:56 Clear 39 3.9 24 -4.4 55 55 WNW 8 13 29.76 1008 10 16 0.00 0.00
11:56 pm 23:56 Clear 37 2.8 22 -5.6 54 54 WNW 10 17 29.78 1008 10 16 0.00 0.00

Powered by AerisWeather